Theta_e
310 315 316 317 318 318 320 321 321 320 321 328 330 336 338 339 342 347 341 342 341 340 339 332 325 322 324 332 337 340 344 342 342 342 341 341 340 338 337 334 325 326 326 326 333 334 334 332 331
311 315 314 318 318 320 321 321 320 318 318 322 328 333 339 341 340 339 342 341 340 340 338 331 327 322 320 323 333 338 339 339 337 336 340 340 339 337 335 331 324 326 327 326 326 333 334 333 332
313 315 314 317 319 321 323 320 319 318 319 322 327 337 337 341 337 338 341 341 341 339 339 331 328 325 322 319 321 330 333 335 337 338 338 337 338 337 336 334 328 329 326 329 333 334 335 334 334
314 315 314 317 318 318 319 319 319 318 321 321 326 338 340 338 337 339 339 341 340 340 339 332 330 328 325 321 324 326 325 328 328 329 330 335 336 336 336 327 326 325 328 332 335 331 325 333 332
314 316 316 317 316 316 317 318 320 319 325 326 327 338 340 339 339 337 338 338 339 340 340 334 331 331 330 326 321 320 322 322 323 322 326 329 330 335 335 335 334 333 333 331 327 326 322 330 325
315 317 317 317 316 316 317 319 321 323 325 327 330 332 339 339 339 339 336 335 337 340 340 339 334 330 330 329 328 327 325 325 326 327 326 324 324 325 327 331 331 330 331 329 326 326 327 329 328
315 318 317 316 315 315 315 316 317 318 323 323 327 335 332 334 338 338 335 335 334 335 336 338 339 336 336 332 328 326 328 328 328 328 328 329 326 327 325 323 328 330 330 331 330 330 331 330 329
316 317 316 316 316 315 315 316 317 317 316 316 317 326 334 333 337 337 335 335 335 335 335 335 335 337 337 335 327 327 325 326 327 328 329 329 329 329 328 328 326 328 329 329 329 329 329 329 328
317 316 315 315 316 315 315 315 317 317 317 318 318 322 333 334 335 334 334 333 333 331 331 335 337 337 335 333 327 333 332 331 331 329 326 329 332 328 330 327 327 325 323 322 325 324 324 326 326
318 318 316 315 315 316 316 315 316 316 317 318 320 321 327 331 332 331 330 330 329 326 325 325 330 334 334 332 327 333 334 332 332 332 331 330 329 329 327 326 323 322 321 319 320 321 321 319 321
318 316 316 316 316 315 316 316 317 316 316 319 319 322 323 326 327 327 326 326 323 323 322 321 326 331 333 332 331 332 331 330 329 329 328 327 325 325 325 325 326 325 320 317 317 319 320 320 319
318 317 317 318 317 317 318 318 318 317 317 318 319 320 322 324 325 325 325 322 321 321 320 319 324 328 328 328 327 329 327 326 325 325 325 323 323 322 324 324 322 320 321 322 321 317 318 316 319
319 319 319 319 319 319 318 318 318 317 318 318 318 321 322 322 323 322 320 319 318 318 319 318 320 325 327 325 324 322 320 319 318 318 318 321 321 323 322 322 322 321 321 321 320 320 317 315 315
320 320 320 320 320 319 319 318 317 317 318 318 318 320 320 321 321 320 318 317 317 317 317 317 318 321 321 323 322 319 317 314 314 315 317 319 320 320 321 319 319 318 318 319 319 321 321 321 321
320 321 322 321 318 316 318 317 316 319 319 318 317 318 319 319 318 318 318 317 317 317 316 315 316 318 319 320 319 316 313 311 312 315 316 316 316 314 314 314 314 314 315 314 314 314 315 317 319
321 321 318 318 318 318 316 316 318 318 317 317 317 318 318 318 318 318 317 316 316 316 314 314 312 313 314 315 313 312 311 310 312 314 314 313 313 313 313 312 311 308 308 309 308 306 307 311 313
320 319 319 320 319 317 317 317 317 319 318 318 318 318 318 319 318 317 317 316 315 315 313 312 311 309 311 311 311 310 310 309 311 312 312 311 309 308 308 308 308 306 305 305 305 305 304 304 304
320 320 321 321 320 319 320 320 320 320 319 319 319 319 318 318 318 318 317 316 315 314 312 311 310 309 310 309 309 309 309 309 309 309 309 309 307 306 306 306 306 306 305 305 305 305 304 304 304
319 320 321 321 320 320 320 321 320 319 318 318 318 319 319 318 318 317 317 316 314 313 312 310 310 309 308 308 308 308 308 308 308 308 308 308 307 306 305 305 305 305 305 304 304 304 304 304 304
318 320 321 320 320 321 321 321 320 318 318 317 317 318 318 318 317 317 317 316 314 313 312 311 310 309 308 308 307 307 308 308 308 307 307 307 307 305 305 305 304 304 304 304 304 305 304 304 303
318 321 320 320 321 322 321 321 321 318 317 317 317 318 317 317 316 316 316 315 315 314 313 312 311 310 309 308 308 308 307 307 306 306 306 307 306 306 306 305 305 304 304 304 304 303 303 304 304
319 320 320 321 323 323 322 321 319 319 318 317 318 319 318 318 317 317 316 315 314 314 314 313 312 311 310 309 308 307 307 306 306 305 305 305 306 306 306 305 305 304 303 303 303 304 304 303 304
320 319 321 323 324 323 322 321 321 319 318 318 319 319 319 318 318 317 316 315 314 313 314 313 312 312 311 310 309 307 307 307 307 306 305 305 305 304 304 304 303 303 303 303 302 301 302 302 304
320 322 323 325 323 331 325 324 322 320 319 318 318 318 318 318 317 316 316 315 315 314 313 313 313 312 312 311 310 308 307 306 307 306 305 304 303 302 301 301 300 300 299 299 299 298 298 299 300
321 323 332 338 340 336 323 322 323 322 320 318 317 317 318 317 317 317 316 316 315 315 314 314 313 313 312 312 311 309 308 306 305 306 304 302 302 300 299 298 298 297 297 296 295 295 296 297 297
321 322 332 331 331 328 321 322 321 320 319 317 317 317 317 318 318 317 317 317 316 315 315 314 313 313 313 312 311 310 308 306 306 304 302 299 298 298 298 297 296 295 295 294 294 294 295 295 296
321 325 321 324 327 327 325 323 323 322 319 318 319 318 319 318 318 318 317 316 315 315 315 314 314 313 313 312 312 309 308 306 304 302 300 298 297 296 295 295 294 294 294 294 294 294 294 295 295
321 321 325 329 332 328 323 324 324 323 323 321 321 320 320 319 318 318 317 315 315 315 315 313 313 312 310 308 308 305 304 302 300 298 297 296 295 295 295 294 293 293 293 293 293 293 294 294 294
321 323 325 323 326 329 330 324 323 322 322 322 320 320 319 319 318 317 316 315 314 313 312 311 310 308 307 305 304 301 300 299 297 296 295 295 294 294 294 293 293 292 293 292 292 293 293 293 293
319 322 322 328 327 326 328 326 321 323 322 321 321 319 318 317 316 315 314 314 313 313 312 311 309 306 305 303 300 299 298 296 295 294 295 295 294 294 293 292 292 292 292 292 292 292 292 292 292
Wind_Speed
11 14 10 11 6 6 14 6 12 11 6 10 12 15 19 16 13 7 11 9 8 7 7 9 11 10 9 7 8 10 10 10 9 5 2 2 4 11 12 13 14 16 23 27 14 15 16 13 12
11 12 8 5 7 10 8 11 9 14 11 2 5 11 21 16 19 14 16 9 9 8 15 10 10 9 9 7 8 9 11 10 9 7 5 1 3 5 6 10 10 19 23 20 20 18 17 13 12
11 10 6 5 10 5 6 14 11 12 4 5 2 20 9 5 13 9 17 13 12 9 11 10 8 9 10 8 7 7 9 9 9 8 8 5 2 1 1 6 17 16 20 16 10 8 18 14 12
8 6 5 9 10 13 11 9 6 5 6 4 4 11 8 4 10 17 10 13 11 10 11 8 8 10 9 9 8 6 6 7 8 8 6 8 5 6 6 4 9 8 12 11 12 15 23 21 11
13 5 11 2 14 11 8 1 3 3 5 2 6 9 12 11 12 10 10 10 11 9 9 6 8 8 8 7 6 5 4 4 6 5 6 6 6 8 7 6 4 6 9 12 9 17 30 27 16
8 10 11 8 9 10 9 11 7 6 6 4 13 16 6 4 5 8 8 9 10 9 7 6 7 8 7 7 4 2 1 1 1 1 2 2 4 4 5 7 7 5 3 4 5 5 13 10 7
14 11 5 11 7 8 6 6 10 7 6 6 16 16 5 7 8 3 6 7 7 6 6 4 2 5 6 7 6 3 1 2 3 2 1 2 1 2 3 4 5 6 4 6 11 9 6 4 4
8 8 6 4 5 10 3 1 5 7 8 8 6 3 2 17 13 5 3 3 3 4 5 3 1 6 5 3 6 6 4 2 1 2 2 1 1 2 2 1 4 4 6 4 6 8 7 2 5
11 7 8 8 10 6 6 8 7 1 7 2 8 10 12 15 13 9 7 6 5 4 5 2 4 3 1 4 3 3 6 5 4 5 4 4 5 3 2 2 2 1 1 2 2 3 2 2 2
7 6 14 8 7 10 5 2 7 4 7 9 6 4 4 9 10 9 10 10 6 5 5 6 5 5 4 5 2 2 3 3 2 3 3 3 3 3 5 1 1 4 6 9 9 5 5 2 5
13 12 4 6 9 9 10 9 4 7 9 12 6 9 5 6 8 6 6 5 9 7 4 5 5 4 3 4 3 1 3 2 3 4 5 3 4 3 2 2 2 3 4 5 7 9 16 18 14
8 6 7 9 5 6 8 10 8 8 8 6 4 4 5 6 5 4 5 2 5 4 3 1 1 3 4 3 5 7 6 5 4 2 2 4 3 4 3 1 1 4 5 6 8 11 13 14 22
5 3 2 2 3 3 7 10 7 8 10 3 4 2 6 6 8 6 4 3 2 4 4 5 6 5 4 4 3 3 6 7 5 3 4 3 3 3 4 2 2 1 3 5 8 11 13 15 13
3 4 1 2 4 6 8 12 10 10 6 4 6 8 8 8 10 8 9 9 8 8 5 6 6 5 4 4 5 7 8 6 4 4 3 2 3 3 1 1 2 3 4 6 7 8 12 16 19
4 9 13 9 2 9 8 16 16 8 9 7 9 10 10 11 14 13 12 12 13 9 7 6 6 6 6 6 7 6 5 5 5 4 3 4 2 2 2 1 1 1 5 7 9 9 9 11 15
12 7 7 5 3 3 5 13 6 8 9 11 11 11 11 13 15 15 15 13 9 7 8 9 8 10 10 10 10 9 8 7 7 7 5 4 5 4 2 1 1 4 3 4 7 10 12 12 12
3 10 11 8 6 1 6 15 15 14 11 12 12 11 10 13 16 17 15 14 10 9 8 10 9 9 10 10 9 10 8 10 10 10 9 7 4 3 3 3 1 3 3 4 5 8 10 12 14
11 10 11 12 8 9 12 15 14 14 15 12 8 9 9 6 7 16 17 11 11 8 9 9 10 11 11 10 11 8 10 12 9 10 12 10 9 5 4 4 2 2 4 3 7 9 11 13 15
11 13 15 14 8 15 16 17 15 5 8 8 7 7 6 5 6 8 9 11 10 9 9 11 12 12 12 12 11 12 12 14 13 14 12 9 10 8 6 4 2 3 4 7 8 9 10 15 16
15 15 12 13 17 15 19 19 13 8 6 6 4 6 6 5 5 7 4 8 9 11 13 14 15 15 15 15 15 17 16 17 20 17 18 15 12 11 9 9 5 5 4 8 11 10 10 12 16
14 8 13 17 18 15 12 12 10 6 11 7 6 4 4 4 6 5 0 4 7 12 14 15 17 18 19 20 19 19 19 17 13 15 12 16 19 17 14 13 10 8 6 8 10 13 16 18 14
11 13 16 17 14 10 15 7 4 12 11 10 7 5 4 5 4 4 0 3 6 14 15 16 18 20 21 20 22 23 19 18 22 24 24 29 26 21 17 13 12 10 8 10 12 12 13 17 18
10 16 19 19 15 9 5 5 10 8 9 11 9 6 6 4 5 6 7 7 5 6 12 16 18 21 23 23 24 26 25 22 21 16 14 11 10 8 7 8 11 12 9 10 12 16 18 19 19
12 17 19 3 1 3 5 2 10 6 4 5 4 5 7 6 7 5 10 8 11 7 7 12 18 23 25 26 27 26 28 24 15 18 7 5 4 4 1 1 3 5 8 10 13 16 18 20 23
16 14 4 4 2 3 12 9 11 17 2 4 7 7 5 3 4 5 7 11 10 12 15 13 19 23 25 25 27 30 26 25 23 19 11 9 6 2 3 8 10 11 13 16 20 21 23 23 25
13 7 2 4 4 9 17 6 6 4 6 6 4 1 7 4 3 6 6 8 10 13 17 18 22 25 24 27 30 29 30 24 20 17 10 6 2 4 7 6 10 12 14 19 21 23 24 24 25
6 5 5 4 1 1 5 12 15 6 7 8 7 8 6 5 5 7 7 11 11 13 16 23 28 26 25 26 28 25 22 19 11 7 7 3 2 4 3 6 10 16 18 20 22 24 24 24 26
7 6 3 1 3 5 8 15 10 11 16 20 14 10 10 8 10 6 6 12 17 23 21 26 24 21 21 21 12 6 6 7 6 5 3 3 3 8 10 11 15 19 21 23 24 25 24 25 27
3 6 4 7 5 4 6 6 12 22 21 10 13 14 13 6 6 5 4 9 15 19 23 27 26 18 16 14 10 5 6 6 7 6 5 2 7 12 17 19 18 21 23 25 25 26 27 28 29
5 9 8 2 8 9 10 13 18 9 4 21 17 11 10 9 9 11 13 14 16 16 25 31 25 17 11 10 3 5 6 7 7 7 2 5 11 19 17 20 22 24 26 26 27 28 28 28 29
Wind_Direction
303 299 280 277 242 221 238 234 72 59 60 34 8 80 76 57 32 84 84 72 79 79 93 51 56 57 51 45 36 32 46 59 48 65 40 276 197 167 145 148 348 304 310 299 270 260 241 226 209
321 305 254 271 250 255 38 72 74 62 61 59 244 39 44 65 88 94 93 109 96 70 78 62 61 57 60 49 45 37 41 39 33 34 57 306 245 218 207 251 195 236 249 274 285 273 240 232 225
305 272 283 230 234 28 77 36 52 64 57 214 144 101 133 135 61 97 108 109 106 81 65 72 74 70 64 64 58 42 44 45 40 44 51 76 119 224 262 248 214 241 261 265 266 330 307 262 240
268 218 260 254 39 46 45 35 10 183 163 274 328 100 88 79 86 93 91 106 100 96 82 69 73 73 69 70 65 57 38 40 44 51 61 67 66 83 94 121 178 214 237 253 251 283 322 303 286
235 263 246 264 60 45 41 253 234 176 82 84 4 46 66 78 94 98 103 98 99 86 80 57 69 72 68 66 68 66 64 42 33 33 45 58 76 83 99 124 170 245 272 266 281 247 238 241 245
257 245 266 96 90 89 29 5 27 22 37 315 59 15 65 95 134 120 127 96 95 104 108 96 61 63 59 59 62 72 93 86 55 44 69 53 69 110 145 158 166 173 178 105 78 139 196 204 241
263 286 55 94 90 79 27 19 9 357 47 27 141 144 215 209 146 154 100 90 85 87 87 93 76 44 57 60 44 55 130 197 211 206 224 151 147 181 158 160 160 172 176 139 137 150 187 204 214
293 292 80 57 137 93 73 138 345 5 52 321 355 60 206 179 161 163 122 108 122 107 81 65 137 90 27 355 46 38 52 79 232 245 220 165 194 310 15 227 173 188 197 198 159 158 147 199 280
287 289 100 61 20 84 107 297 121 300 281 22 356 32 102 143 160 174 177 200 170 83 69 41 335 10 309 267 359 31 64 58 65 40 67 109 126 45 103 201 96 82 221 41 208 167 162 171 332
300 53 58 26 10 350 3 311 14 315 222 212 179 93 99 155 171 197 202 194 122 84 71 37 14 336 325 291 320 192 91 77 26 39 36 55 133 164 182 289 288 267 258 278 264 269 248 263 311
23 50 40 70 37 334 326 306 127 285 290 11 26 148 167 199 214 223 270 33 84 92 53 33 30 23 360 16 332 32 360 70 14 30 30 350 29 8 62 301 22 309 293 330 328 287 268 274 282
99 52 4 38 18 320 330 344 310 301 302 33 330 7 158 213 220 224 255 148 179 173 134 129 131 134 154 132 111 127 139 131 130 112 81 4 44 9 89 302 328 356 310 301 316 327 313 293 269
52 73 334 117 232 282 308 284 275 274 287 126 253 200 228 230 226 212 235 207 232 233 200 194 200 182 167 134 170 154 129 171 179 185 230 161 186 175 162 215 144 237 286 310 313 309 305 303 306
30 315 337 250 285 278 261 280 282 274 208 205 231 228 232 220 243 222 205 242 224 239 223 216 220 216 205 210 181 188 184 192 168 181 184 160 193 168 201 165 301 323 313 274 268 280 283 285 291
303 262 206 200 263 293 349 300 216 218 166 233 230 224 245 238 222 233 236 213 242 235 221 207 219 214 207 205 201 203 192 194 185 181 151 151 171 181 124 149 60 347 330 338 332 323 305 285 273
253 229 334 103 122 153 253 300 22 190 191 209 234 224 220 233 245 236 225 239 235 237 204 212 210 200 201 207 200 211 212 199 200 190 190 188 175 163 141 143 306 326 337 324 329 327 329 328 320
249 358 356 315 204 18 275 298 302 296 239 225 217 231 228 214 212 223 231 216 215 222 221 222 219 222 215 222 216 220 207 207 212 196 200 199 203 189 192 178 272 33 337 340 351 339 326 317 313
343 335 319 306 23 342 311 292 295 289 265 258 228 221 213 240 264 210 199 206 187 221 227 238 227 227 225 227 226 218 224 232 217 219 213 194 207 200 214 227 222 310 293 305 327 327 324 317 308
315 300 315 358 352 321 312 300 286 346 9 28 17 22 20 350 342 342 163 168 186 222 225 239 243 236 223 233 231 234 227 233 230 236 219 206 228 214 227 259 316 294 299 338 318 312 321 319 314
316 321 347 322 334 310 296 289 286 88 74 40 53 80 41 24 4 23 53 173 199 228 242 236 244 242 227 235 240 242 240 237 230 231 230 208 225 231 238 247 247 278 304 305 309 294 298 301 309
327 2 335 319 320 303 359 301 191 138 117 124 102 138 123 81 7 8 259 283 219 225 239 252 248 247 234 226 244 246 240 255 265 240 233 215 227 228 237 250 254 267 277 289 305 310 304 297 310
313 5 324 309 318 326 312 289 265 163 138 160 147 99 84 47 33 7 150 251 258 232 232 240 255 254 252 237 225 246 243 224 236 243 241 239 235 227 226 248 266 273 273 280 289 295 307 313 307
302 318 292 286 282 315 328 286 49 150 182 168 159 117 96 42 35 2 344 349 271 292 233 237 251 256 255 255 241 231 244 249 252 268 272 259 222 249 272 271 289 283 285 288 305 312 306 299 295
297 313 306 254 175 277 344 318 299 355 49 71 100 59 65 39 22 348 321 323 339 320 239 247 253 257 258 253 252 241 232 240 255 249 260 244 217 234 160 206 308 315 310 308 306 298 296 296 292
353 344 335 355 277 253 19 316 263 291 150 101 49 32 46 25 289 11 341 337 345 332 327 282 248 249 255 260 261 251 243 231 242 258 261 239 215 219 332 325 333 310 301 294 291 289 286 285 283
305 346 319 309 322 314 318 263 322 340 125 110 126 232 244 259 331 337 322 331 338 352 341 313 295 291 279 261 253 249 241 230 237 241 232 190 213 261 287 269 277 286 282 279 279 278 277 279 279
345 339 353 285 175 240 256 287 320 352 98 93 304 272 47 349 321 342 334 337 360 347 325 309 294 304 301 296 295 248 237 222 211 201 201 209 240 270 300 294 290 289 283 282 282 279 278 273 272
242 342 311 184 284 299 308 307 269 325 353 344 338 10 360 342 0 350 349 8 356 342 331 335 315 302 311 321 309 230 191 172 162 143 138 196 302 315 280 290 281 283 283 282 280 278 277 274 273
297 276 224 252 293 278 293 256 318 313 306 328 350 323 324 315 334 354 15 357 356 341 344 333 316 316 307 309 295 188 150 161 159 160 189 289 299 298 297 284 286 285 283 282 281 278 276 273 273
282 277 286 259 282 290 295 282 278 311 340 333 323 347 1 2 8 6 350 335 352 351 339 327 314 306 290 299 170 147 167 167 168 176 262 289 281 281 279 287 284 283 283 283 281 279 277 276 276